Data supplied by UK-AIR on 2/5/2024
All Data GMT hour ending 
Status: R =Ratified P=Provisional,P*=As supplied
,,Northampton Spring Park,,,,,,,,,,,,,,,,,,,,,,,
Date,time,"Nitric oxide",status,unit,"Nitrogen dioxide",status,unit,"Nitrogen oxides as nitrogen dioxide",status,unit,"Ozone",status,unit,"PM<sub>2.5</sub> particulate matter (Hourly measured)",status,unit
 
01-01-2024,01:00,0.36253,P,ugm-3,0.48831,P,ugm-3,1.04418,P,ugm-3,70.51473,P,ugm-3,8.000,P,ugm-3 (BAM)
01-01-2024,02:00,0.45317,P,ugm-3,0.48857,P,ugm-3,1.18341,P,ugm-3,70.38169,P,ugm-3,8.000,P,ugm-3 (BAM)
01-01-2024,03:00,0.27190,P,ugm-3,0.36623,P,ugm-3,0.78314,P,ugm-3,69.55015,P,ugm-3,5.000,P,ugm-3 (BAM)
01-01-2024,04:00,0.23791,P,ugm-3,0.31393,P,ugm-3,0.67872,P,ugm-3,68.00348,P,ugm-3,4.000,P,ugm-3 (BAM)
01-01-2024,05:00,0.30589,P,ugm-3,0.36633,P,ugm-3,0.83535,P,ugm-3,66.95574,P,ugm-3,3.000,P,ugm-3 (BAM)
01-01-2024,06:00,0.23791,P,ugm-3,0.31393,P,ugm-3,0.67872,P,ugm-3,67.15531,P,ugm-3,3.000,P,ugm-3 (BAM)
01-01-2024,07:00,0.33987,P,ugm-3,0.62747,P,ugm-3,1.14860,P,ugm-3,68.05337,P,ugm-3,9.000,P,ugm-3 (BAM)
01-01-2024,08:00,0.37386,P,ugm-3,1.41070,P,ugm-3,1.98395,P,ugm-3,66.50670,P,ugm-3,9.000,P,ugm-3 (BAM)
01-01-2024,09:00,0.47582,P,ugm-3,2.24634,P,ugm-3,2.97592,P,ugm-3,64.86025,P,ugm-3,7.000,P,ugm-3 (BAM)
01-01-2024,10:00,0.74772,P,ugm-3,3.13466,P,ugm-3,4.28115,P,ugm-3,64.41122,P,ugm-3,6.000,P,ugm-3 (BAM)
01-01-2024,11:00,1.01962,P,ugm-3,4.23182,P,ugm-3,5.79522,P,ugm-3,62.11616,P,ugm-3,4.000,P,ugm-3 (BAM)
01-01-2024,12:00,1.18956,P,ugm-3,3.76242,P,ugm-3,5.58638,P,ugm-3,62.31573,P,ugm-3,7.000,P,ugm-3 (BAM)
01-01-2024,13:00,1.35950,P,ugm-3,6.06010,P,ugm-3,8.14463,P,ugm-3,59.87100,P,ugm-3,6.000,P,ugm-3 (BAM)
01-01-2024,14:00,1.08760,P,ugm-3,9.13968,P,ugm-3,10.80730,P,ugm-3,53.83401,P,ugm-3,7.000,P,ugm-3 (BAM)
01-01-2024,15:00,0.98563,P,ugm-3,9.97473,P,ugm-3,11.48602,P,ugm-3,54.08347,P,ugm-3,7.000,P,ugm-3 (BAM)
01-01-2024,16:00,0.91766,P,ugm-3,8.77373,P,ugm-3,10.18079,P,ugm-3,54.08347,P,ugm-3,8.000,P,ugm-3 (BAM)
01-01-2024,17:00,0.84968,P,ugm-3,10.75749,P,ugm-3,12.06032,P,ugm-3,55.48046,P,ugm-3,8.000,P,ugm-3 (BAM)
01-01-2024,18:00,0.61177,P,ugm-3,12.27088,P,ugm-3,13.20892,P,ugm-3,54.48261,P,ugm-3,6.000,P,ugm-3 (BAM)
01-01-2024,19:00,0.54380,P,ugm-3,13.21046,P,ugm-3,14.04427,P,ugm-3,53.18541,P,ugm-3,7.000,P,ugm-3 (BAM)
01-01-2024,20:00,0.40785,P,ugm-3,10.28636,P,ugm-3,10.91172,P,ugm-3,59.32218,P,ugm-3,5.000,P,ugm-3 (BAM)
01-01-2024,21:00,0.47582,P,ugm-3,6.21424,P,ugm-3,6.94382,P,ugm-3,65.60864,P,ugm-3,5.000,P,ugm-3 (BAM)
01-01-2024,22:00,0.37386,P,ugm-3,4.54325,P,ugm-3,5.11650,P,ugm-3,67.85380,P,ugm-3,4.000,P,ugm-3 (BAM)
01-01-2024,23:00,0.20393,P,ugm-3,3.28975,P,ugm-3,3.60243,P,ugm-3,67.90369,P,ugm-3,2.000,P,ugm-3 (BAM)
01-01-2024,24:00,0.20393,P,ugm-3,2.66324,P,ugm-3,2.97592,P,ugm-3,72.44391,P,ugm-3,4.000,P,ugm-3 (BAM)
02-01-2024,01:00,0.27183,P,ugm-3,1.94943,P,ugm-3,2.36623,P,ugm-3,76.36879,P,ugm-3,3.000,P,ugm-3 (BAM)
02-01-2024,02:00,0.22652,P,ugm-3,0.97497,P,ugm-3,1.32230,P,ugm-3,77.96535,P,ugm-3,0.000,P,ugm-3 (BAM)
02-01-2024,03:00,0.20387,P,ugm-3,0.83572,P,ugm-3,1.14832,P,ugm-3,76.33553,P,ugm-3,1.000,P,ugm-3 (BAM)
02-01-2024,04:00,0.30581,P,ugm-3,1.30578,P,ugm-3,1.77467,P,ugm-3,71.74542,P,ugm-3,6.000,P,ugm-3 (BAM)
02-01-2024,05:00,0.23785,P,ugm-3,2.55829,P,ugm-3,2.92299,P,ugm-3,71.14671,P,ugm-3,5.000,P,ugm-3 (BAM)
02-01-2024,06:00,0.33978,P,ugm-3,2.50639,P,ugm-3,3.02738,P,ugm-3,73.09251,P,ugm-3,4.000,P,ugm-3 (BAM)
02-01-2024,07:00,0.33978,P,ugm-3,3.91568,P,ugm-3,4.43668,P,ugm-3,73.09251,P,ugm-3,10.000,P,ugm-3 (BAM)
02-01-2024,08:00,0.78151,P,ugm-3,6.89212,P,ugm-3,8.09041,P,ugm-3,67.50455,P,ugm-3,7.000,P,ugm-3 (BAM)
02-01-2024,09:00,0.88344,P,ugm-3,12.42521,P,ugm-3,13.77980,P,ugm-3,59.07272,P,ugm-3,8.000,P,ugm-3 (BAM)
02-01-2024,10:00,1.05333,P,ugm-3,15.76625,P,ugm-3,17.38134,P,ugm-3,54.83186,P,ugm-3,6.000,P,ugm-3 (BAM)
02-01-2024,11:00,1.22322,P,ugm-3,18.42874,P,ugm-3,20.30433,P,ugm-3,52.48691,P,ugm-3,4.000,P,ugm-3 (BAM)
02-01-2024,12:00,0.74753,P,ugm-3,13.41655,P,ugm-3,14.56274,P,ugm-3,57.52605,P,ugm-3,3.000,P,ugm-3 (BAM)
02-01-2024,13:00,1.08731,P,ugm-3,17.38443,P,ugm-3,19.05162,P,ugm-3,56.22885,P,ugm-3,2.000,P,ugm-3 (BAM)
02-01-2024,14:00,0.88344,P,ugm-3,8.87587,P,ugm-3,10.23046,P,ugm-3,66.75617,P,ugm-3,3.000,P,ugm-3 (BAM)
02-01-2024,15:00,0.67957,P,ugm-3,6.31767,P,ugm-3,7.35967,P,ugm-3,70.69767,P,ugm-3,3.000,P,ugm-3 (BAM)
02-01-2024,16:00,1.08731,P,ugm-3,6.31884,P,ugm-3,7.98602,P,ugm-3,69.40047,P,ugm-3,7.000,P,ugm-3 (BAM)
02-01-2024,17:00,1.01935,P,ugm-3,8.98065,P,ugm-3,10.54363,P,ugm-3,66.35703,P,ugm-3,6.000,P,ugm-3 (BAM)
02-01-2024,18:00,2.17462,P,ugm-3,7.31366,P,ugm-3,10.64803,P,ugm-3,81.72392,P,ugm-3,6.000,P,ugm-3 (BAM)
02-01-2024,19:00,0.91742,P,ugm-3,6.63153,P,ugm-3,8.03822,P,ugm-3,76.98413,P,ugm-3,5.000,P,ugm-3 (BAM)
02-01-2024,20:00,0.57763,P,ugm-3,2.82024,P,ugm-3,3.70593,P,ugm-3,77.93209,P,ugm-3,4.000,P,ugm-3 (BAM)
02-01-2024,21:00,0.74753,P,ugm-3,2.61194,P,ugm-3,3.75813,P,ugm-3,75.03832,P,ugm-3,5.000,P,ugm-3 (BAM)
02-01-2024,22:00,0.40774,P,ugm-3,2.66317,P,ugm-3,3.28836,P,ugm-3,73.19230,P,ugm-3,6.000,P,ugm-3 (BAM)
02-01-2024,23:00,0.50968,P,ugm-3,2.82004,P,ugm-3,3.60154,P,ugm-3,70.94714,P,ugm-3,7.000,P,ugm-3 (BAM)
02-01-2024,24:00,0.54366,P,ugm-3,3.34210,P,ugm-3,4.17570,P,ugm-3,68.30283,P,ugm-3,6.000,P,ugm-3 (BAM)
03-01-2024,01:00,0.49822,P,ugm-3,3.89778,P,ugm-3,4.66170,P,ugm-3,66.52333,P,ugm-3,6.000,P,ugm-3 (BAM)
03-01-2024,02:00,0.31705,P,ugm-3,1.80993,P,ugm-3,2.29606,P,ugm-3,68.05337,P,ugm-3,6.000,P,ugm-3 (BAM)
03-01-2024,03:00,0.27176,P,ugm-3,1.77501,P,ugm-3,2.19170,P,ugm-3,66.80606,P,ugm-3,8.000,P,ugm-3 (BAM)
03-01-2024,04:00,0.23779,P,ugm-3,1.72273,P,ugm-3,2.08733,P,ugm-3,68.50240,P,ugm-3,6.000,P,ugm-3 (BAM)
03-01-2024,05:00,0.23779,P,ugm-3,1.87928,P,ugm-3,2.24388,P,ugm-3,67.30498,P,ugm-3,4.000,P,ugm-3 (BAM)
03-01-2024,06:00,0.40763,P,ugm-3,2.61033,P,ugm-3,3.23536,P,ugm-3,67.70412,P,ugm-3,5.000,P,ugm-3 (BAM)
03-01-2024,07:00,0.67939,P,ugm-3,5.01154,P,ugm-3,6.05326,P,ugm-3,67.20520,P,ugm-3,5.000,P,ugm-3 (BAM)
03-01-2024,08:00,1.15496,P,ugm-3,7.36115,P,ugm-3,9.13207,P,ugm-3,63.31358,P,ugm-3,7.000,P,ugm-3 (BAM)
03-01-2024,09:00,0.98512,P,ugm-3,8.97834,P,ugm-3,10.48883,P,ugm-3,59.87100,P,ugm-3,6.000,P,ugm-3 (BAM)
03-01-2024,10:00,1.18893,P,ugm-3,6.78723,P,ugm-3,8.61024,P,ugm-3,62.91444,P,ugm-3,2.000,P,ugm-3 (BAM)
03-01-2024,11:00,1.08702,P,ugm-3,4.64743,P,ugm-3,6.31417,P,ugm-3,66.25724,P,ugm-3,3.000,P,ugm-3 (BAM)
03-01-2024,12:00,1.59657,P,ugm-3,6.21438,P,ugm-3,8.66242,P,ugm-3,66.00778,P,ugm-3,5.000,P,ugm-3 (BAM)
03-01-2024,13:00,1.56260,P,ugm-3,5.58809,P,ugm-3,7.98404,P,ugm-3,69.20090,P,ugm-3,4.000,P,ugm-3 (BAM)
03-01-2024,14:00,1.93626,P,ugm-3,5.90226,P,ugm-3,8.87115,P,ugm-3,67.90369,P,ugm-3,3.000,P,ugm-3 (BAM)
03-01-2024,15:00,1.90229,P,ugm-3,6.58054,P,ugm-3,9.49735,P,ugm-3,67.50455,P,ugm-3,3.000,P,ugm-3 (BAM)
03-01-2024,16:00,2.20802,P,ugm-3,8.82530,P,ugm-3,12.21088,P,ugm-3,63.41337,P,ugm-3,5.000,P,ugm-3 (BAM)
03-01-2024,17:00,1.97023,P,ugm-3,8.40715,P,ugm-3,11.42813,P,ugm-3,62.91444,P,ugm-3,5.000,P,ugm-3 (BAM)
03-01-2024,18:00,3.39695,P,ugm-3,11.02041,P,ugm-3,16.22899,P,ugm-3,56.87745,P,ugm-3,4.000,P,ugm-3 (BAM)
03-01-2024,19:00,2.71756,P,ugm-3,12.47959,P,ugm-3,16.64645,P,ugm-3,53.18541,P,ugm-3,2.000,P,ugm-3 (BAM)
03-01-2024,20:00,1.49466,P,ugm-3,8.82325,P,ugm-3,11.11503,P,ugm-3,58.32433,P,ugm-3,4.000,P,ugm-3 (BAM)
03-01-2024,21:00,1.80038,P,ugm-3,6.05842,P,ugm-3,8.81897,P,ugm-3,61.31788,P,ugm-3,3.000,P,ugm-3 (BAM)
03-01-2024,22:00,0.57748,P,ugm-3,3.60230,P,ugm-3,4.48776,P,ugm-3,61.86670,P,ugm-3,3.000,P,ugm-3 (BAM)
03-01-2024,23:00,0.54351,P,ugm-3,3.44565,P,ugm-3,4.27903,P,ugm-3,61.26799,P,ugm-3,6.000,P,ugm-3 (BAM)
03-01-2024,24:00,0.33970,P,ugm-3,2.24485,P,ugm-3,2.76571,P,ugm-3,59.77122,P,ugm-3,4.000,P,ugm-3 (BAM)
04-01-2024,01:00,0.36225,P,ugm-3,3.82687,P,ugm-3,4.38230,P,ugm-3,57.07702,P,ugm-3,4.000,P,ugm-3 (BAM)
04-01-2024,02:00,0.18112,P,ugm-3,2.08734,P,ugm-3,2.36505,P,ugm-3,58.40749,P,ugm-3,2.000,P,ugm-3 (BAM)
04-01-2024,03:00,0.20376,P,ugm-3,2.13957,P,ugm-3,2.45200,P,ugm-3,56.27874,P,ugm-3,3.000,P,ugm-3 (BAM)
04-01-2024,04:00,0.23772,P,ugm-3,1.67014,P,ugm-3,2.03464,P,ugm-3,60.76907,P,ugm-3,6.000,P,ugm-3 (BAM)
04-01-2024,05:00,0.27168,P,ugm-3,1.77457,P,ugm-3,2.19115,P,ugm-3,61.86670,P,ugm-3,7.000,P,ugm-3 (BAM)
04-01-2024,06:00,0.54337,P,ugm-3,4.38388,P,ugm-3,5.21703,P,ugm-3,59.27229,P,ugm-3,5.000,P,ugm-3 (BAM)
04-01-2024,07:00,0.61129,P,ugm-3,10.33148,P,ugm-3,11.26878,P,ugm-3,46.40003,P,ugm-3,5.000,P,ugm-3 (BAM)
04-01-2024,08:00,2.20744,P,ugm-3,19.57024,P,ugm-3,22.95492,P,ugm-3,38.11787,P,ugm-3,10.000,P,ugm-3 (BAM)
04-01-2024,09:00,5.53557,P,ugm-3,23.80565,P,ugm-3,32.29340,P,ugm-3,37.16991,P,ugm-3,9.000,P,ugm-3 (BAM)
04-01-2024,10:00,2.51308,P,ugm-3,14.66711,P,ugm-3,18.52045,P,ugm-3,48.59530,P,ugm-3,8.000,P,ugm-3 (BAM)
04-01-2024,11:00,2.03763,P,ugm-3,9.29220,P,ugm-3,12.41653,P,ugm-3,53.98369,P,ugm-3,6.000,P,ugm-3 (BAM)
04-01-2024,12:00,2.03763,P,ugm-3,8.35313,P,ugm-3,11.47746,P,ugm-3,54.18326,P,ugm-3,5.000,P,ugm-3 (BAM)
04-01-2024,13:00,5.19596,P,ugm-3,14.88355,P,ugm-3,22.85058,P,ugm-3,48.59530,P,ugm-3,9.000,P,ugm-3 (BAM)
04-01-2024,14:00,2.34328,P,ugm-3,19.77931,P,ugm-3,23.37228,P,ugm-3,41.80992,P,ugm-3,7.000,P,ugm-3 (BAM)
04-01-2024,15:00,4.34695,P,ugm-3,35.43618,P,ugm-3,42.10141,P,ugm-3,24.64690,P,ugm-3,10.000,P,ugm-3 (BAM)
04-01-2024,16:00,2.98853,P,ugm-3,34.91055,P,ugm-3,39.49290,P,ugm-3,26.49292,P,ugm-3,10.000,P,ugm-3 (BAM)
04-01-2024,17:00,1.93575,P,ugm-3,41.27229,P,ugm-3,44.24040,P,ugm-3,17.56216,P,ugm-3,13.000,P,ugm-3 (BAM)
04-01-2024,18:00,0.91694,P,ugm-3,34.22635,P,ugm-3,35.63230,P,ugm-3,21.45378,P,ugm-3,11.000,P,ugm-3 (BAM)
04-01-2024,19:00,0.95090,P,ugm-3,27.49649,P,ugm-3,28.95450,P,ugm-3,25.69464,P,ugm-3,12.000,P,ugm-3 (BAM)
04-01-2024,20:00,1.12070,P,ugm-3,23.47986,P,ugm-3,25.19824,P,ugm-3,29.58625,P,ugm-3,12.000,P,ugm-3 (BAM)
04-01-2024,21:00,1.63011,P,ugm-3,20.71631,P,ugm-3,23.21577,P,ugm-3,32.62970,P,ugm-3,9.000,P,ugm-3 (BAM)
04-01-2024,22:00,1.29050,P,ugm-3,18.62852,P,ugm-3,20.60726,P,ugm-3,38.76647,P,ugm-3,8.000,P,ugm-3 (BAM)
04-01-2024,23:00,0.84901,P,ugm-3,10.80170,P,ugm-3,12.10351,P,ugm-3,54.23315,P,ugm-3,8.000,P,ugm-3 (BAM)
04-01-2024,24:00,0.40753,P,ugm-3,4.74867,P,ugm-3,5.37354,P,ugm-3,64.61079,P,ugm-3,7.000,P,ugm-3 (BAM)
05-01-2024,01:00,0.36215,P,ugm-3,6.12085,P,ugm-3,6.67614,P,ugm-3,52.88605,P,ugm-3,8.000,P,ugm-3 (BAM)
05-01-2024,02:00,0.27161,P,ugm-3,11.82312,P,ugm-3,12.23958,P,ugm-3,37.12002,P,ugm-3,11.000,P,ugm-3 (BAM)
05-01-2024,03:00,0.23766,P,ugm-3,18.67301,P,ugm-3,19.03742,P,ugm-3,30.33464,P,ugm-3,13.000,P,ugm-3 (BAM)
05-01-2024,04:00,0.30557,P,ugm-3,26.02739,P,ugm-3,26.49592,P,ugm-3,22.45163,P,ugm-3,17.000,P,ugm-3 (BAM)
05-01-2024,05:00,0.33952,P,ugm-3,13.77052,P,ugm-3,14.29110,P,ugm-3,34.32604,P,ugm-3,9.000,P,ugm-3 (BAM)
05-01-2024,06:00,0.54323,P,ugm-3,8.81617,P,ugm-3,9.64910,P,ugm-3,41.80992,P,ugm-3,6.000,P,ugm-3 (BAM)
05-01-2024,07:00,1.08645,P,ugm-3,14.81584,P,ugm-3,16.48171,P,ugm-3,35.42368,P,ugm-3,12.000,P,ugm-3 (BAM)
05-01-2024,08:00,1.76548,P,ugm-3,18.62530,P,ugm-3,21.33234,P,ugm-3,32.08088,P,ugm-3,14.000,P,ugm-3 (BAM)
05-01-2024,09:00,6.00943,P,ugm-3,25.20949,P,ugm-3,34.42383,P,ugm-3,25.19571,P,ugm-3,15.000,P,ugm-3 (BAM)
05-01-2024,10:00,3.32726,P,ugm-3,18.83848,P,ugm-3,23.94021,P,ugm-3,34.17636,P,ugm-3,13.000,P,ugm-3 (BAM)
05-01-2024,11:00,3.49702,P,ugm-3,17.27426,P,ugm-3,22.63627,P,ugm-3,34.37593,P,ugm-3,14.000,P,ugm-3 (BAM)
05-01-2024,12:00,3.42911,P,ugm-3,14.40541,P,ugm-3,19.66331,P,ugm-3,38.46712,P,ugm-3,9.000,P,ugm-3 (BAM)
05-01-2024,13:00,3.80258,P,ugm-3,14.09355,P,ugm-3,19.92409,P,ugm-3,39.86411,P,ugm-3,11.000,P,ugm-3 (BAM)
05-01-2024,14:00,2.98774,P,ugm-3,16.28179,P,ugm-3,20.86293,P,ugm-3,39.31529,P,ugm-3,8.000,P,ugm-3 (BAM)
05-01-2024,15:00,3.36121,P,ugm-3,17.79544,P,ugm-3,22.94922,P,ugm-3,36.62110,P,ugm-3,8.000,P,ugm-3 (BAM)
05-01-2024,16:00,4.82113,P,ugm-3,21.50286,P,ugm-3,28.89515,P,ugm-3,32.38023,P,ugm-3,10.000,P,ugm-3 (BAM)
05-01-2024,17:00,3.90443,P,ugm-3,24.36884,P,ugm-3,30.35556,P,ugm-3,27.34109,P,ugm-3,10.000,P,ugm-3 (BAM)
05-01-2024,18:00,4.65137,P,ugm-3,27.91771,P,ugm-3,35.04971,P,ugm-3,22.25206,P,ugm-3,12.000,P,ugm-3 (BAM)
05-01-2024,19:00,3.93839,P,ugm-3,25.98582,P,ugm-3,32.02459,P,ugm-3,22.20216,P,ugm-3,10.000,P,ugm-3 (BAM)
05-01-2024,20:00,3.22540,P,ugm-3,24.36686,P,ugm-3,29.31241,P,ugm-3,22.75098,P,ugm-3,14.000,P,ugm-3 (BAM)
05-01-2024,21:00,2.47847,P,ugm-3,18.10581,P,ugm-3,21.90607,P,ugm-3,28.83787,P,ugm-3,12.000,P,ugm-3 (BAM)
05-01-2024,22:00,1.22226,P,ugm-3,15.96370,P,ugm-3,17.83780,P,ugm-3,29.98539,P,ugm-3,13.000,P,ugm-3 (BAM)
05-01-2024,23:00,1.12040,P,ugm-3,15.28536,P,ugm-3,17.00328,P,ugm-3,28.08948,P,ugm-3,12.000,P,ugm-3 (BAM)
05-01-2024,24:00,1.39202,P,ugm-3,14.92105,P,ugm-3,17.05544,P,ugm-3,23.69894,P,ugm-3,18.000,P,ugm-3 (BAM)
06-01-2024,01:00,0.58834,P,ugm-3,15.43646,P,ugm-3,16.33856,P,ugm-3,22.01922,P,ugm-3,20.000,P,ugm-3 (BAM)
06-01-2024,02:00,0.49783,P,ugm-3,15.01903,P,ugm-3,15.78236,P,ugm-3,20.95485,P,ugm-3,16.000,P,ugm-3 (BAM)
06-01-2024,03:00,0.57703,P,ugm-3,15.43642,P,ugm-3,16.32118,P,ugm-3,21.00474,P,ugm-3,20.000,P,ugm-3 (BAM)
06-01-2024,04:00,0.40731,P,ugm-3,15.27949,P,ugm-3,15.90403,P,ugm-3,20.90496,P,ugm-3,19.000,P,ugm-3 (BAM)
06-01-2024,05:00,0.40731,P,ugm-3,14.13231,P,ugm-3,14.75685,P,ugm-3,23.59915,P,ugm-3,17.000,P,ugm-3 (BAM)
06-01-2024,06:00,0.27154,P,ugm-3,8.29175,P,ugm-3,8.70811,P,ugm-3,39.11572,P,ugm-3,6.000,P,ugm-3 (BAM)
06-01-2024,07:00,1.32376,P,ugm-3,10.64133,P,ugm-3,12.67108,P,ugm-3,32.77937,P,ugm-3,7.000,P,ugm-3 (BAM)
06-01-2024,08:00,1.59530,P,ugm-3,12.25861,P,ugm-3,14.70471,P,ugm-3,33.92690,P,ugm-3,6.000,P,ugm-3 (BAM)
06-01-2024,09:00,4.37860,P,ugm-3,15.86474,P,ugm-3,22.57850,P,ugm-3,32.28045,P,ugm-3,9.000,P,ugm-3 (BAM)
06-01-2024,10:00,5.26111,P,ugm-3,16.59735,P,ugm-3,24.66428,P,ugm-3,24.39743,P,ugm-3,10.000,P,ugm-3 (BAM)
06-01-2024,11:00,4.75197,P,ugm-3,13.72792,P,ugm-3,21.01417,P,ugm-3,31.48217,P,ugm-3,7.000,P,ugm-3 (BAM)
06-01-2024,12:00,3.90341,P,ugm-3,10.90963,P,ugm-3,16.89477,P,ugm-3,38.56690,P,ugm-3,6.000,P,ugm-3 (BAM)
06-01-2024,13:00,3.76763,P,ugm-3,9.24061,P,ugm-3,15.01757,P,ugm-3,44.10497,P,ugm-3,5.000,P,ugm-3 (BAM)
06-01-2024,14:00,3.83552,P,ugm-3,9.50153,P,ugm-3,15.38258,P,ugm-3,46.15056,P,ugm-3,5.000,P,ugm-3 (BAM)
06-01-2024,15:00,3.63186,P,ugm-3,11.84743,P,ugm-3,17.41621,P,ugm-3,43.40648,P,ugm-3,6.000,P,ugm-3 (BAM)
06-01-2024,16:00,4.07312,P,ugm-3,15.75955,P,ugm-3,22.00491,P,ugm-3,36.92045,P,ugm-3,9.000,P,ugm-3 (BAM)
06-01-2024,17:00,4.07312,P,ugm-3,22.38188,P,ugm-3,28.62725,P,ugm-3,27.74023,P,ugm-3,10.000,P,ugm-3 (BAM)
06-01-2024,18:00,5.97391,P,ugm-3,19.57167,P,ugm-3,28.73154,P,ugm-3,30.28475,P,ugm-3,8.000,P,ugm-3 (BAM)
06-01-2024,19:00,3.02090,P,ugm-3,19.71943,P,ugm-3,24.35141,P,ugm-3,30.33464,P,ugm-3,13.000,P,ugm-3 (BAM)
06-01-2024,20:00,2.10445,P,ugm-3,17.94383,P,ugm-3,21.17060,P,ugm-3,28.63830,P,ugm-3,10.000,P,ugm-3 (BAM)
06-01-2024,21:00,2.20627,P,ugm-3,21.12494,P,ugm-3,24.50784,P,ugm-3,22.75098,P,ugm-3,14.000,P,ugm-3 (BAM)
06-01-2024,22:00,2.40993,P,ugm-3,20.39552,P,ugm-3,24.09069,P,ugm-3,22.60130,P,ugm-3,14.000,P,ugm-3 (BAM)
06-01-2024,23:00,3.05484,P,ugm-3,16.85159,P,ugm-3,21.53561,P,ugm-3,24.79657,P,ugm-3,11.000,P,ugm-3 (BAM)
06-01-2024,24:00,0.71280,P,ugm-3,10.58740,P,ugm-3,11.68033,P,ugm-3,31.03314,P,ugm-3,11.000,P,ugm-3 (BAM)
07-01-2024,01:00,0.40721,P,ugm-3,9.59338,P,ugm-3,10.21775,P,ugm-3,29.27027,P,ugm-3,11.000,P,ugm-3 (BAM)
07-01-2024,02:00,0.27147,P,ugm-3,7.64674,P,ugm-3,8.06299,P,ugm-3,34.19299,P,ugm-3,15.000,P,ugm-3 (BAM)
07-01-2024,03:00,0.33934,P,ugm-3,5.83972,P,ugm-3,6.36003,P,ugm-3,37.07013,P,ugm-3,11.000,P,ugm-3 (BAM)
07-01-2024,04:00,0.27147,P,ugm-3,5.05755,P,ugm-3,5.47380,P,ugm-3,42.85766,P,ugm-3,11.000,P,ugm-3 (BAM)
07-01-2024,05:00,0.30540,P,ugm-3,3.85863,P,ugm-3,4.32691,P,ugm-3,56.77767,P,ugm-3,8.000,P,ugm-3 (BAM)
07-01-2024,06:00,0.27147,P,ugm-3,3.02442,P,ugm-3,3.44067,P,ugm-3,58.22455,P,ugm-3,6.000,P,ugm-3 (BAM)
07-01-2024,07:00,1.42522,P,ugm-3,4.01834,P,ugm-3,6.20363,P,ugm-3,55.33078,P,ugm-3,8.000,P,ugm-3 (BAM)
07-01-2024,08:00,1.66275,P,ugm-3,4.33183,P,ugm-3,6.88134,P,ugm-3,57.52605,P,ugm-3,7.000,P,ugm-3 (BAM)
07-01-2024,09:00,1.62882,P,ugm-3,5.16583,P,ugm-3,7.66331,P,ugm-3,57.92519,P,ugm-3,8.000,P,ugm-3 (BAM)
07-01-2024,10:00,2.98617,P,ugm-3,6.68165,P,ugm-3,11.26038,P,ugm-3,57.77552,P,ugm-3,5.000,P,ugm-3 (BAM)
07-01-2024,11:00,2.98617,P,ugm-3,8.55838,P,ugm-3,13.13711,P,ugm-3,54.78197,P,ugm-3,4.000,P,ugm-3 (BAM)
07-01-2024,12:00,1.69669,P,ugm-3,6.46931,P,ugm-3,9.07086,P,ugm-3,60.81896,P,ugm-3,7.000,P,ugm-3 (BAM)
07-01-2024,13:00,1.93422,P,ugm-3,6.26149,P,ugm-3,9.22725,P,ugm-3,66.05767,P,ugm-3,5.000,P,ugm-3 (BAM)
07-01-2024,14:00,0.91621,P,ugm-3,4.01683,P,ugm-3,5.42166,P,ugm-3,75.08821,P,ugm-3,5.000,P,ugm-3 (BAM)
07-01-2024,15:00,0.71261,P,ugm-3,3.85983,P,ugm-3,4.95248,P,ugm-3,77.38327,P,ugm-3,5.000,P,ugm-3 (BAM)
07-01-2024,16:00,0.88228,P,ugm-3,5.26788,P,ugm-3,6.62069,P,ugm-3,76.48520,P,ugm-3,6.000,P,ugm-3 (BAM)
07-01-2024,17:00,0.91621,P,ugm-3,5.58077,P,ugm-3,6.98561,P,ugm-3,77.63273,P,ugm-3,9.000,P,ugm-3 (BAM)
07-01-2024,18:00,0.54294,P,ugm-3,5.11048,P,ugm-3,5.94298,P,ugm-3,77.13381,P,ugm-3,9.000,P,ugm-3 (BAM)
07-01-2024,19:00,0.67868,P,ugm-3,6.20564,P,ugm-3,7.24626,P,ugm-3,73.64133,P,ugm-3,7.000,P,ugm-3 (BAM)
07-01-2024,20:00,0.78048,P,ugm-3,5.58037,P,ugm-3,6.77708,P,ugm-3,75.33768,P,ugm-3,9.000,P,ugm-3 (BAM)
07-01-2024,21:00,1.62882,P,ugm-3,8.34584,P,ugm-3,10.84333,P,ugm-3,68.95144,P,ugm-3,7.000,P,ugm-3 (BAM)
07-01-2024,22:00,0.91621,P,ugm-3,6.46700,P,ugm-3,7.87184,P,ugm-3,67.80391,P,ugm-3,10.000,P,ugm-3 (BAM)
07-01-2024,23:00,0.54294,P,ugm-3,4.17212,P,ugm-3,5.00461,P,ugm-3,69.55015,P,ugm-3,6.000,P,ugm-3 (BAM)
07-01-2024,24:00,0.33934,P,ugm-3,3.12889,P,ugm-3,3.64920,P,ugm-3,69.20090,P,ugm-3,7.000,P,ugm-3 (BAM)
08-01-2024,01:00,0.40710,P,ugm-3,3.75374,P,ugm-3,4.37795,P,ugm-3,67.38814,P,ugm-3,7.000,P,ugm-3 (BAM)
08-01-2024,02:00,0.40710,P,ugm-3,3.61476,P,ugm-3,4.23896,P,ugm-3,66.92247,P,ugm-3,6.000,P,ugm-3 (BAM)
08-01-2024,03:00,0.44102,P,ugm-3,3.44113,P,ugm-3,4.11735,P,ugm-3,67.00563,P,ugm-3,7.000,P,ugm-3 (BAM)
08-01-2024,04:00,0.33925,P,ugm-3,2.91964,P,ugm-3,3.43982,P,ugm-3,67.45466,P,ugm-3,8.000,P,ugm-3 (BAM)
08-01-2024,05:00,0.37317,P,ugm-3,2.65915,P,ugm-3,3.23134,P,ugm-3,69.15101,P,ugm-3,6.000,P,ugm-3 (BAM)
08-01-2024,06:00,0.44102,P,ugm-3,3.80596,P,ugm-3,4.48219,P,ugm-3,65.85810,P,ugm-3,5.000,P,ugm-3 (BAM)
08-01-2024,07:00,1.35699,P,ugm-3,7.40486,P,ugm-3,9.48555,P,ugm-3,62.26584,P,ugm-3,4.000,P,ugm-3 (BAM)
08-01-2024,08:00,1.76409,P,ugm-3,14.02511,P,ugm-3,16.73001,P,ugm-3,59.32218,P,ugm-3,3.000,P,ugm-3 (BAM)
08-01-2024,09:00,1.08559,P,ugm-3,13.97097,P,ugm-3,15.63553,P,ugm-3,60.36993,P,ugm-3,2.000,P,ugm-3 (BAM)
08-01-2024,10:00,0.84812,P,ugm-3,11.41646,P,ugm-3,12.71689,P,ugm-3,61.96649,P,ugm-3,3.000,P,ugm-3 (BAM)
08-01-2024,11:00,0.74634,P,ugm-3,7.14245,P,ugm-3,8.28683,P,ugm-3,65.85810,P,ugm-3,7.000,P,ugm-3 (BAM)
08-01-2024,12:00,0.50887,P,ugm-3,4.48370,P,ugm-3,5.26396,P,ugm-3,70.09896,P,ugm-3,6.000,P,ugm-3 (BAM)
08-01-2024,13:00,0.67850,P,ugm-3,5.68293,P,ugm-3,6.72328,P,ugm-3,70.49810,P,ugm-3,9.000,P,ugm-3 (BAM)
08-01-2024,14:00,0.64457,P,ugm-3,4.48411,P,ugm-3,5.47243,P,ugm-3,72.54370,P,ugm-3,9.000,P,ugm-3 (BAM)
08-01-2024,15:00,0.64457,P,ugm-3,5.26588,P,ugm-3,6.25421,P,ugm-3,71.54585,P,ugm-3,7.000,P,ugm-3 (BAM)
08-01-2024,16:00,0.54280,P,ugm-3,5.73465,P,ugm-3,6.56692,P,ugm-3,71.39617,P,ugm-3,6.000,P,ugm-3 (BAM)
08-01-2024,17:00,0.50887,P,ugm-3,6.56844,P,ugm-3,7.34870,P,ugm-3,70.74757,P,ugm-3,6.000,P,ugm-3 (BAM)
08-01-2024,18:00,0.50887,P,ugm-3,5.21336,P,ugm-3,5.99362,P,ugm-3,71.84520,P,ugm-3,9.000,P,ugm-3 (BAM)
08-01-2024,19:00,0.30532,P,ugm-3,6.04665,P,ugm-3,6.51480,P,ugm-3,68.70197,P,ugm-3,12.000,P,ugm-3 (BAM)
08-01-2024,20:00,0.50887,P,ugm-3,6.04725,P,ugm-3,6.82751,P,ugm-3,67.30498,P,ugm-3,8.000,P,ugm-3 (BAM)
08-01-2024,21:00,0.27140,P,ugm-3,4.79570,P,ugm-3,5.21184,P,ugm-3,67.90369,P,ugm-3,10.000,P,ugm-3 (BAM)
08-01-2024,22:00,0.47495,P,ugm-3,4.17089,P,ugm-3,4.89913,P,ugm-3,67.40477,P,ugm-3,11.000,P,ugm-3 (BAM)
08-01-2024,23:00,0.20355,P,ugm-3,3.12771,P,ugm-3,3.43982,P,ugm-3,68.40262,P,ugm-3,9.000,P,ugm-3 (BAM)
08-01-2024,24:00,0.27140,P,ugm-3,3.02368,P,ugm-3,3.43982,P,ugm-3,68.80176,P,ugm-3,10.000,P,ugm-3 (BAM)
09-01-2024,01:00,0.18089,P,ugm-3,2.91845,P,ugm-3,3.19580,P,ugm-3,69.51688,P,ugm-3,7.000,P,ugm-3 (BAM)
09-01-2024,02:00,0.27133,P,ugm-3,2.64082,P,ugm-3,3.05685,P,ugm-3,69.78298,P,ugm-3,9.000,P,ugm-3 (BAM)
09-01-2024,03:00,0.23741,P,ugm-3,2.39756,P,ugm-3,2.76159,P,ugm-3,70.04907,P,ugm-3,9.000,P,ugm-3 (BAM)
09-01-2024,04:00,0.27133,P,ugm-3,2.71030,P,ugm-3,3.12633,P,ugm-3,69.25079,P,ugm-3,9.000,P,ugm-3 (BAM)
09-01-2024,05:00,0.20350,P,ugm-3,2.71010,P,ugm-3,3.02212,P,ugm-3,69.20090,P,ugm-3,9.000,P,ugm-3 (BAM)
09-01-2024,06:00,0.27133,P,ugm-3,3.02293,P,ugm-3,3.43896,P,ugm-3,66.95574,P,ugm-3,10.000,P,ugm-3 (BAM)
09-01-2024,07:00,0.37307,P,ugm-3,4.84693,P,ugm-3,5.41897,P,ugm-3,62.86455,P,ugm-3,11.000,P,ugm-3 (BAM)
09-01-2024,08:00,0.44091,P,ugm-3,7.29609,P,ugm-3,7.97213,P,ugm-3,58.67358,P,ugm-3,12.000,P,ugm-3 (BAM)
09-01-2024,09:00,0.88181,P,ugm-3,9.90269,P,ugm-3,11.25478,P,ugm-3,59.17251,P,ugm-3,10.000,P,ugm-3 (BAM)
09-01-2024,10:00,0.98356,P,ugm-3,9.22562,P,ugm-3,10.73372,P,ugm-3,64.46111,P,ugm-3,8.000,P,ugm-3 (BAM)
09-01-2024,11:00,1.01748,P,ugm-3,6.77677,P,ugm-3,8.33687,P,ugm-3,69.74972,P,ugm-3,7.000,P,ugm-3 (BAM)
09-01-2024,12:00,0.98356,P,ugm-3,5.21350,P,ugm-3,6.72160,P,ugm-3,72.74327,P,ugm-3,8.000,P,ugm-3 (BAM)
09-01-2024,13:00,0.98356,P,ugm-3,4.58824,P,ugm-3,6.09634,P,ugm-3,77.93209,P,ugm-3,6.000,P,ugm-3 (BAM)
09-01-2024,14:00,0.84790,P,ugm-3,4.32730,P,ugm-3,5.62739,P,ugm-3,79.62843,P,ugm-3,4.000,P,ugm-3 (BAM)
09-01-2024,15:00,0.71223,P,ugm-3,5.47321,P,ugm-3,6.56529,P,ugm-3,77.78241,P,ugm-3,9.000,P,ugm-3 (BAM)
09-01-2024,16:00,0.74615,P,ugm-3,7.03648,P,ugm-3,8.18056,P,ugm-3,74.28993,P,ugm-3,8.000,P,ugm-3 (BAM)
09-01-2024,17:00,0.61049,P,ugm-3,8.28660,P,ugm-3,9.22266,P,ugm-3,73.34198,P,ugm-3,9.000,P,ugm-3 (BAM)
09-01-2024,18:00,0.81398,P,ugm-3,8.91248,P,ugm-3,10.16056,P,ugm-3,72.54370,P,ugm-3,12.000,P,ugm-3 (BAM)
09-01-2024,19:00,0.61049,P,ugm-3,7.19239,P,ugm-3,8.12845,P,ugm-3,72.84305,P,ugm-3,10.000,P,ugm-3 (BAM)
09-01-2024,20:00,0.57657,P,ugm-3,5.99386,P,ugm-3,6.87792,P,ugm-3,73.29208,P,ugm-3,8.000,P,ugm-3 (BAM)
09-01-2024,21:00,0.67832,P,ugm-3,5.68153,P,ugm-3,6.72160,P,ugm-3,72.79316,P,ugm-3,9.000,P,ugm-3 (BAM)
09-01-2024,22:00,0.44091,P,ugm-3,3.85713,P,ugm-3,4.53317,P,ugm-3,74.73897,P,ugm-3,10.000,P,ugm-3 (BAM)
09-01-2024,23:00,0.37307,P,ugm-3,3.38798,P,ugm-3,3.96002,P,ugm-3,73.29208,P,ugm-3,9.000,P,ugm-3 (BAM)
09-01-2024,24:00,0.30524,P,ugm-3,2.81461,P,ugm-3,3.28264,P,ugm-3,73.44176,P,ugm-3,6.000,P,ugm-3 (BAM)
10-01-2024,01:00,0.27126,P,ugm-3,2.77909,P,ugm-3,3.19501,P,ugm-3,73.64133,P,ugm-3,7.000,P,ugm-3 (BAM)
10-01-2024,02:00,0.31646,P,ugm-3,2.70977,P,ugm-3,3.19501,P,ugm-3,74.43961,P,ugm-3,6.000,P,ugm-3 (BAM)
10-01-2024,03:00,0.23735,P,ugm-3,2.70953,P,ugm-3,3.07346,P,ugm-3,72.29423,P,ugm-3,9.000,P,ugm-3 (BAM)
10-01-2024,04:00,0.23735,P,ugm-3,2.70953,P,ugm-3,3.07346,P,ugm-3,71.09681,P,ugm-3,8.000,P,ugm-3 (BAM)
10-01-2024,05:00,0.23735,P,ugm-3,3.02208,P,ugm-3,3.38601,P,ugm-3,68.60219,P,ugm-3,7.000,P,ugm-3 (BAM)
10-01-2024,06:00,0.33907,P,ugm-3,3.85587,P,ugm-3,4.37577,P,ugm-3,65.95789,P,ugm-3,9.000,P,ugm-3 (BAM)
10-01-2024,07:00,2.78036,P,ugm-3,8.29112,P,ugm-3,12.55429,P,ugm-3,60.86885,P,ugm-3,6.000,P,ugm-3 (BAM)
10-01-2024,08:00,6.13714,P,ugm-3,19.34490,P,ugm-3,28.75505,P,ugm-3,47.49766,P,ugm-3,7.000,P,ugm-3 (BAM)
10-01-2024,09:00,5.18775,P,ugm-3,24.60336,P,ugm-3,32.55780,P,ugm-3,45.10282,P,ugm-3,8.000,P,ugm-3 (BAM)
10-01-2024,10:00,2.78036,P,ugm-3,15.16733,P,ugm-3,19.43050,P,ugm-3,55.58025,P,ugm-3,6.000,P,ugm-3 (BAM)
10-01-2024,11:00,1.69534,P,ugm-3,7.81901,P,ugm-3,10.41850,P,ugm-3,62.66498,P,ugm-3,5.000,P,ugm-3 (BAM)
10-01-2024,12:00,1.25455,P,ugm-3,5.62979,P,ugm-3,7.55341,P,ugm-3,66.15746,P,ugm-3,7.000,P,ugm-3 (BAM)
10-01-2024,13:00,1.05111,P,ugm-3,4.27477,P,ugm-3,5.88645,P,ugm-3,68.30283,P,ugm-3,6.000,P,ugm-3 (BAM)